SYRACUSE 3B

Last updated on Sun Apr 12 2026 00:02:51 GMT+0000 (Coordinated Universal Time)

1 29273U 06033B 26101.48272182 -.00000216 00000+0 00000+0 0 9997 2 29273 2.7313 80.9717 0004634 283.0130 178.0304 0.98629781 72009

Satellite not in orbit

SYRACUSE 3B